Weather in Troitsa

Russia / Perm Krai     57°59′29″N   56°47′19″E
temp.,
°C
wind,
m/s
gust,
m/s
humid.,
%
clouds,
%
prec.,
mm/h
press.,
hPa
HPBL,
m
9 december, thu
thu923:00−5s41295100 3.1 1029511
02:00−3ssw41296100 0.9 1029563
05:00−3ssw31197100 3.0 1029539
08:00−2ssw41092100 1.4 1029453
11:00−3s31093100 1.4 1029388
14:00−4s41091100 0.0 1029393
17:00−5s41186100 0.0 1028362
20:00−4s41183100 0.0 1027388
10 december, fri
fri1023:00−4s31185100 0.0 1025438
02:00−4s3987100 0.1 1025394
05:00−5ssw3996100 1.7 1024427
08:00−4sw3896100 2.6 1024431
11:00−6w279791 3.2 1026246
14:00−7nw379397 0.1 1028397
17:00−13nnw279462 0.1 1031205
20:00−18nw119955 0.0 103410
11 december, sat
sat1123:00−21nw1110011 0.0 10379
02:00−21nnw239911 0.0 103859
05:00−20nnw26985 0.0 1039111
08:00−21nnw119912 0.0 104025
11:00−19nnw12975 0.0 104160
14:00−14nnw25895 0.0 1040203
17:00−17w119890 0.0 104117
20:00−18wnw239831 0.0 104251
12 december, sun
sun1223:00−19wnw219942 0.0 104321
02:00−20nw111005 0.0 104314
05:00−21nw1110014 0.0 104412
08:00−21wnw1110011 0.0 104411
11:00−18w1296100 0.0 104442
14:00−12w2588100 0.0 1043157
17:00−11w2887100 0.0 1043208
20:00−11wnw31085100 0.0 1042229
13 december, mon
mon1323:00−13wsw239445 0.0 104356
02:00−14w249362 0.0 104361
05:00−15wsw139595 0.0 104349
08:00−16wsw129695 0.0 104231
11:00−14w299155 0.0 1041183
14:00−11wsw29865 0.0 1040266
17:00−16sw11977 0.0 104011
20:00−16sw249758 0.0 104061